Location: Albany
(35.0000°S, 118.0000°E)
Time: 15:41:34
(UTC-04:00)

Transit 2A - Visible Passes

Search period start: 25 October 2014 00:00
Search period end: 03 November 2014 23:00
Orbit: 598 x 964 km, 66.7° (Epoch: 24 October)

Date Brightness Start Highest point End Pass type
(mag) Time Alt. Az. Time Alt. Az. Time Alt. Az.
25 Oct 8.9 11:43:55 10° SSW 11:44:13 12° SSW 11:44:13 12° SSW visible
26 Oct 8.7 11:10:36 10° S 11:11:23 14° S 11:11:23 14° S visible
27 Oct 8.5 10:37:27 10° S 10:38:34 15° S 10:38:34 15° S visible
28 Oct 8.4 10:04:33 10° S 10:05:47 13° SSE 10:05:47 13° SSE visible
29 Oct 8.4 09:32:22 10° SSE 09:33:01 11° SE 09:33:01 11° SE visible
29 Oct 8.6 11:12:49 10° SSW 11:13:32 14° SSW 11:13:32 14° SSW visible
30 Oct 8.3 10:39:19 10° SSW 10:40:48 19° SSW 10:40:48 19° SSW visible
31 Oct 7.9 10:05:57 10° SSW 10:08:05 22° S 10:08:05 22° S visible
01 Nov 7.7 09:32:44 10° S 09:35:24 22° SSE 09:35:24 22° SSE visible
01 Nov 8.8 11:15:53 10° SW 11:15:55 10° SW 11:15:55 10° SW visible
02 Nov 7.7 07:59:43 10° S 08:02:44 18° SE 08:02:44 18° SE visible
02 Nov 8.3 09:41:59 10° SW 09:43:16 17° SW 09:43:16 17° SW visible
03 Nov 8.0 07:27:11 10° SSE 07:29:14 12° SE 07:30:06 12° ESE visible
03 Nov 7.6 09:08:16 10° SSW 09:10:38 28° SW 09:10:38 28° SW visible
